"Period start","avg(HW err(1)/warn(2) (#))","avg(Visibility (m))","avg(Weather code (#))","avg(Precip intensity (mm/h))","min(HW err(1)/warn(2) (#))","max(HW err(1)/warn(2) (#))","std(HW err(1)/warn(2) (#))","med(HW err(1)/warn(2) (#))","min(Visibility (m))","max(Visibility (m))","std(Visibility (m))","med(Visibility (m))","min(Weather code (#))","max(Weather code (#))","std(Weather code (#))","med(Weather code (#))","min(Precip intensity (mm/h))","max(Precip intensity (mm/h))","std(Precip intensity (mm/h))","med(Precip intensity (mm/h))"
2014-05-11 00:00:00,2,9344,1,0.00,2,2,0,2,5783,13027,2336,9186,0,10,3,0,0.00,0.00,0.00,0.00
2014-05-11 00:10:00,2,9100,10,0.00,2,2,0,2,5051,13893,3066,8885,10,10,0,10,0.00,0.00,0.00,0.00
2014-05-11 00:20:00,2,19792,5,0.00,2,2,0,2,11333,28606,5232,20232,0,10,5,5,0.00,0.00,0.00,0.00
2014-05-11 00:30:00,2,14111,0,0.00,2,2,0,2,8325,21093,4806,13638,0,0,0,0,0.00,0.00,0.00,0.00
2014-05-11 00:40:00,2,5312,7,0.00,2,2,0,2,4009,7972,1391,4514,0,10,5,10,0.00,0.00,0.00,0.00
2014-05-11 00:50:00,2,3432,61,0.38,2,2,0,2,1254,8162,2222,2709,10,77,25,71,0.00,1.25,0.44,0.12
2014-05-11 01:00:00,2,2512,34,0.09,2,2,0,2,1018,5414,1134,2400,10,71,30,10,0.00,0.55,0.17,0.00
2014-05-11 01:10:00,2,5641,10,0.00,2,2,0,2,3233,7239,1228,6110,10,10,0,10,0.00,0.00,0.00,0.00
2014-05-11 01:20:00,2,5677,16,0.01,2,2,0,2,4021,6964,891,6073,10,71,18,10,0.00,0.05,0.02,0.00
2014-05-11 01:30:00,2,3019,71,0.34,2,2,0,2,1551,4844,1027,2902,71,71,0,71,0.00,1.60,0.50,0.08
2014-05-11 01:40:00,2,4002,74,0.05,2,2,0,2,2264,5637,1293,3792,71,77,3,74,0.00,0.25,0.07,0.03
2014-05-11 01:50:00,2,3545,71,0.09,2,2,0,2,2324,4502,699,3542,71,71,0,71,0.00,0.20,0.08,0.05
2014-05-11 02:00:00,2,5025,73,0.10,2,2,0,2,2022,7335,1599,5308,71,77,3,71,0.00,0.70,0.20,0.05
2014-05-11 02:10:00,2,4525,73,0.35,2,2,0,2,2325,7303,1536,4255,71,77,3,71,0.00,1.75,0.52,0.10
2014-05-11 02:20:00,2,4366,71,0.18,2,2,0,2,3290,6895,1184,3846,71,71,0,71,0.00,0.65,0.18,0.10
2014-05-11 02:30:00,2,3816,71,0.12,2,2,0,2,2311,6628,1185,3622,71,71,0,71,0.00,0.45,0.15,0.08
2014-05-11 02:40:00,2,2121,71,0.55,2,2,0,2,1364,3647,606,1931,71,71,0,71,0.00,3.45,0.99,0.20
2014-05-11 02:50:00,2,2741,71,0.29,2,2,0,2,2129,3602,454,2652,71,71,0,71,0.00,1.15,0.44,0.08
2014-05-11 03:00:00,2,1991,71,0.86,2,2,0,2,1188,2962,576,2040,71,71,0,71,0.05,2.10,0.63,0.65
2014-05-11 03:10:00,2,3546,71,0.35,2,2,0,2,1501,5963,1247,3362,71,71,0,71,0.00,1.85,0.56,0.08
2014-05-11 03:20:00,2,6163,71,0.05,2,2,0,2,4074,9991,1781,5584,71,71,0,71,0.00,0.15,0.05,0.05
2014-05-11 03:30:00,2,8438,72,0.03,2,2,0,2,4851,13854,2282,8260,54,77,7,74,0.00,0.05,0.02,0.05
2014-05-11 03:40:00,2,3895,66,0.14,2,2,0,2,2642,6224,1166,3699,54,71,8,71,0.00,0.45,0.15,0.08
2014-05-11 03:50:00,2,2784,67,0.07,2,2,0,2,2070,4600,788,2496,64,71,3,64,0.00,0.20,0.06,0.05
2014-05-11 04:00:00,2,2031,67,0.12,2,2,0,2,1366,2524,331,2034,64,71,3,64,0.00,0.55,0.16,0.05
2014-05-11 04:10:00,2,1934,41,0.14,2,2,0,2,1311,2405,384,1894,41,41,0,41,0.00,0.55,0.15,0.12
2014-05-11 04:20:00,2,1516,48,0.24,2,2,0,2,1171,2112,265,1530,41,74,13,41,0.00,0.55,0.17,0.25
2014-05-11 04:30:00,2,1433,56,0.48,2,2,0,2,1023,2294,370,1254,41,71,15,56,0.05,0.95,0.28,0.42
2014-05-11 04:40:00,2,1734,69,0.19,2,2,0,2,1353,2191,240,1632,64,71,3,71,0.00,0.50,0.17,0.12
2014-05-11 04:50:00,2,1384,71,1.12,2,2,0,2,802,2061,388,1310,71,71,0,71,0.05,5.20,1.50,0.53
2014-05-11 05:00:00,2,2050,73,0.14,2,2,0,2,1535,2644,288,2084,71,77,3,71,0.00,0.40,0.12,0.12
2014-05-11 05:10:00,2,1503,65,0.53,2,2,0,2,1213,1915,203,1458,41,71,12,71,0.10,1.30,0.37,0.33
2014-05-11 05:20:00,2,2192,76,0.15,2,2,0,2,1621,2799,369,2196,71,77,2,77,0.00,0.35,0.10,0.15
2014-05-11 05:30:00,2,1876,71,0.64,2,2,0,2,1590,2109,186,1944,71,71,0,71,0.20,1.65,0.44,0.45
2014-05-11 05:40:00,2,1995,71,0.52,2,2,0,2,1855,2244,112,1981,71,71,0,71,0.10,0.95,0.29,0.52
2014-05-11 05:50:00,2,1765,71,0.70,2,2,0,2,1414,2283,282,1648,71,71,0,71,0.20,1.35,0.38,0.62
2014-05-11 06:00:00,2,2313,71,0.40,2,2,0,2,1453,3346,558,2330,71,71,0,71,0.10,0.95,0.23,0.38
2014-05-11 06:10:00,2,2862,71,0.62,2,2,0,2,1942,3618,495,2866,71,71,0,71,0.10,1.15,0.31,0.62
2014-05-11 06:20:00,2,2266,71,0.96,2,2,0,2,1502,2854,411,2344,71,71,0,71,0.60,1.50,0.26,0.90
2014-05-11 06:30:00,2,2438,71,0.81,2,2,0,2,1694,3276,456,2495,71,71,0,71,0.15,1.80,0.55,0.78
2014-05-11 06:40:00,2,1846,71,1.65,2,2,0,2,1251,2661,415,1721,71,71,0,71,0.75,2.55,0.49,1.65
2014-05-11 06:50:00,2,1784,71,1.65,2,2,0,2,1231,2249,396,1857,71,71,0,71,0.65,4.65,1.16,1.25
2014-05-11 07:00:00,2,2453,71,1.11,2,2,0,2,1334,4537,908,2230,71,71,0,71,0.00,3.55,1.14,0.83
2014-05-11 07:10:00,2,948,71,6.31,2,2,0,2,595,1233,184,951,71,71,0,71,2.15,11.30,2.98,5.30
2014-05-11 07:20:00,2,1624,71,2.21,2,2,0,2,1143,2058,282,1653,71,71,0,71,0.20,3.65,1.30,2.83
2014-05-11 07:30:00,2,2179,59,1.02,2,2,0,2,1258,3332,548,2284,10,77,25,71,0.00,2.90,0.95,0.75
2014-05-11 07:40:00,2,3890,60,0.27,2,2,0,2,2117,6177,1139,3502,10,77,21,74,0.00,1.45,0.44,0.03
2014-05-11 07:50:00,2,4275,29,0.02,2,2,0,2,3115,6576,1022,4116,10,77,29,10,0.00,0.15,0.05,0.00
2014-05-11 08:00:00,2,8407,10,0.00,2,2,0,2,3374,12500,2620,8504,10,10,0,10,0.00,0.00,0.00,0.00
2014-05-11 08:10:00,2,7224,10,0.00,2,2,0,2,4787,10568,1795,6920,10,10,0,10,0.00,0.00,0.00,0.00
2014-05-11 08:20:00,2,10293,69,0.01,2,2,0,2,5890,17087,3541,8770,10,77,20,77,0.00,0.05,0.02,0.00
2014-05-11 08:30:00,2,14929,24,0.01,2,2,0,2,11567,17664,2136,15784,0,77,35,0,0.00,0.05,0.02,0.00
2014-05-11 08:40:00,2,13419,0,0.00,2,2,0,2,10433,20007,2914,12592,0,0,0,0,0.00,0.00,0.00,0.00
2014-05-11 08:50:00,2,12103,0,0.00,2,2,0,2,6597,18802,3829,10868,0,0,0,0,0.00,0.00,0.00,0.00
2014-05-11 09:00:00,2,10337,0,0.00,2,2,0,2,8821,11977,1031,10586,0,0,0,0,0.00,0.00,0.00,0.00
2014-05-11 09:10:00,2,8481,5,0.00,2,2,0,2,5187,11338,2190,8633,0,10,5,5,0.00,0.00,0.00,0.00
2014-05-11 09:20:00,2,6510,44,0.02,2,2,0,2,4606,8690,1469,6769,10,77,29,54,0.00,0.05,0.02,0.00
2014-05-11 09:30:00,2,6671,54,0.02,2,2,0,2,4378,9725,1461,6616,54,54,0,54,0.00,0.10,0.03,0.00
2014-05-11 09:40:00,2,5833,41,0.02,2,2,0,2,4055,7469,1242,5524,10,54,20,54,0.00,0.10,0.03,0.00
2014-05-11 09:50:00,2,6374,10,0.00,2,2,0,2,5059,8136,898,6404,10,10,0,10,0.00,0.00,0.00,0.00
2014-05-11 10:00:00,2,6243,22,0.01,2,2,0,2,4024,8043,1321,5978,10,71,24,10,0.00,0.05,0.02,0.00
2014-05-11 10:10:00,2,7963,74,0.08,2,2,0,2,5674,10930,1616,7838,71,77,3,74,0.00,0.30,0.08,0.05
2014-05-11 10:20:00,2,7616,74,0.08,2,2,0,2,6970,8749,515,7636,71,77,3,74,0.00,0.35,0.10,0.05
2014-05-11 10:30:00,2,13090,40,0.06,2,2,0,2,6605,26299,6122,10124,10,77,31,37,0.00,0.45,0.14,0.00
2014-05-11 10:40:00,2,14406,2,0.00,2,2,0,2,11026,20187,3037,13813,0,10,4,0,0.00,0.00,0.00,0.00
2014-05-11 10:50:00,2,17165,0,0.00,2,2,0,2,10829,20310,2713,17726,0,0,0,0,0.00,0.00,0.00,0.00
2014-05-11 11:00:00,2,10492,0,0.00,2,2,0,2,5304,14043,2808,11125,0,0,0,0,0.00,0.00,0.00,0.00
2014-05-11 11:10:00,2,6271,38,0.04,2,2,0,2,2135,12809,3204,6125,0,77,36,40,0.00,0.20,0.06,0.00
2014-05-11 11:20:00,2,4383,23,0.11,2,2,0,2,2001,7233,1356,4542,10,54,20,10,0.00,0.70,0.21,0.00
2014-05-11 11:30:00,2,5004,47,0.04,2,2,0,2,3172,7184,1013,4805,10,77,31,62,0.00,0.25,0.08,0.00
2014-05-11 11:40:00,2,5426,20,0.03,2,2,0,2,2776,7662,1645,5492,10,71,21,10,0.00,0.25,0.08,0.00
2014-05-11 11:50:00,2,7822,10,0.00,2,2,0,2,5919,10921,1708,6877,10,10,0,10,0.00,0.00,0.00,0.00
2014-05-11 12:00:00,2,12213,10,0.00,2,2,0,2,7550,17454,3181,12517,10,10,0,10,0.00,0.00,0.00,0.00
2014-05-11 12:10:00,2,23589,1,0.00,2,2,0,2,13098,35320,7165,24498,0,10,3,0,0.00,0.00,0.00,0.00
2014-05-11 12:20:00,2,21484,0,0.00,2,2,0,2,7664,35285,8852,22750,0,0,0,0,0.00,0.00,0.00,0.00
2014-05-11 12:30:00,2,24159,0,0.00,2,2,0,2,8463,41376,10188,21698,0,0,0,0,0.00,0.00,0.00,0.00
2014-05-11 12:40:00,2,31262,0,0.00,2,2,0,2,25354,40253,4595,30874,0,0,0,0,0.00,0.00,0.00,0.00
2014-05-11 12:50:00,2,23852,0,0.00,2,2,0,2,8962,42057,11393,19596,0,0,0,0,0.00,0.00,0.00,0.00
2014-05-11 13:00:00,2,13648,0,0.00,2,2,0,2,9532,18687,3260,12738,0,0,0,0,0.00,0.00,0.00,0.00
2014-05-11 13:10:00,2,11498,0,0.00,2,2,0,2,7965,18395,2842,11184,0,0,0,0,0.00,0.00,0.00,0.00
2014-05-11 13:20:00,2,25853,0,0.00,2,2,0,2,10994,45318,11028,21954,0,0,0,0,0.00,0.00,0.00,0.00
2014-05-11 13:30:00,2,44730,0,0.00,2,2,0,2,34772,50000,4826,45190,0,0,0,0,0.00,0.00,0.00,0.00
2014-05-11 13:40:00,2,40379,0,0.00,2,2,0,2,30222,50000,7195,37598,0,0,0,0,0.00,0.00,0.00,0.00
2014-05-11 13:50:00,2,28652,0,0.00,2,2,0,2,9842,42845,11065,26896,0,0,0,0,0.00,0.00,0.00,0.00
2014-05-11 14:00:00,2,18653,0,0.00,2,2,0,2,12072,24136,3872,17074,0,0,0,0,0.00,0.00,0.00,0.00
2014-05-11 14:10:00,2,15341,24,0.00,2,2,0,2,12519,19258,1930,15179,0,77,31,0,0.00,0.00,0.00,0.00
2014-05-11 14:20:00,2,12125,75,0.15,2,2,0,2,6882,19322,4211,10140,71,77,3,77,0.00,0.45,0.13,0.12
2014-05-11 14:30:00,2,6040,72,0.38,2,2,0,2,3788,9063,1786,6006,71,77,2,71,0.05,1.05,0.29,0.28
2014-05-11 14:40:00,2,6809,73,0.30,2,2,0,2,3564,11186,2168,6206,71,77,3,71,0.00,0.80,0.23,0.25
2014-05-11 14:50:00,2,12507,69,0.14,2,2,0,2,10249,17216,2306,11363,64,77,6,68,0.00,0.30,0.12,0.12
2014-05-11 15:00:00,2,15017,71,0.18,2,2,0,2,9411,23449,3807,14304,71,71,0,71,0.00,0.45,0.13,0.17
2014-05-11 15:10:00,2,17848,74,0.07,2,2,0,2,10671,28906,6160,17420,71,77,3,74,0.00,0.20,0.06,0.05
2014-05-11 15:20:00,2,26843,15,0.00,2,2,0,2,18736,32272,4214,27594,0,77,31,0,0.00,0.00,0.00,0.00
2014-05-11 15:30:00,2,8575,2,0.00,2,2,0,2,3433,13871,2744,8090,0,10,4,0,0.00,0.00,0.00,0.00
2014-05-11 15:40:00,2,7971,10,0.00,2,2,0,2,3203,12179,2607,8394,10,10,0,10,0.00,0.00,0.00,0.00
2014-05-11 15:50:00,2,11542,29,0.00,2,2,0,2,4934,18178,3364,11420,10,77,29,10,0.00,0.00,0.00,0.00
2014-05-11 16:00:00,2,19131,1,0.00,2,2,0,2,9189,29851,7022,17940,0,10,3,0,0.00,0.00,0.00,0.00
2014-05-11 16:10:00,2,25901,0,0.00,2,2,0,2,14973,38015,6713,26824,0,0,0,0,0.00,0.00,0.00,0.00
2014-05-11 16:20:00,2,10841,0,0.00,2,2,0,2,7167,15834,2765,10282,0,0,0,0,0.00,0.00,0.00,0.00
2014-05-11 16:30:00,2,11584,0,0.00,2,2,0,2,6319,17371,3088,11840,0,0,0,0,0.00,0.00,0.00,0.00
2014-05-11 16:40:00,2,17304,0,0.00,2,2,0,2,8457,28364,6556,14942,0,0,0,0,0.00,0.00,0.00,0.00
2014-05-11 16:50:00,2,28657,14,0.00,2,2,0,2,16837,36483,5756,29398,0,71,28,0,0.00,0.00,0.00,0.00
2014-05-11 17:00:00,2,23360,78,0.01,2,2,0,2,20474,27655,2269,22824,78,78,0,78,0.00,0.05,0.02,0.00
2014-05-11 17:10:00,2,21942,31,0.00,2,2,0,2,16726,27074,2665,21756,0,78,38,0,0.00,0.00,0.00,0.00
2014-05-11 17:20:00,2,26027,0,0.00,2,2,0,2,21063,33193,3539,26006,0,0,0,0,0.00,0.00,0.00,0.00
2014-05-11 17:30:00,2,25202,0,0.00,2,2,0,2,16938,36206,7570,21502,0,0,0,0,0.00,0.00,0.00,0.00
2014-05-11 17:40:00,2,36193,0,0.00,2,2,0,2,27742,46115,6028,35269,0,0,0,0,0.00,0.00,0.00,0.00
2014-05-11 17:50:00,2,39922,0,0.00,2,2,0,2,18294,50000,10011,44144,0,0,0,0,0.00,0.00,0.00,0.00
2014-05-11 18:00:00,2,43242,0,0.00,2,2,0,2,38401,48943,3317,42248,0,0,0,0,0.00,0.00,0.00,0.00
2014-05-11 18:10:00,2,43732,0,0.00,2,2,0,2,24997,50000,7327,44986,0,0,0,0,0.00,0.00,0.00,0.00
2014-05-11 18:20:00,2,28724,0,0.00,2,2,0,2,10402,50000,15040,24400,0,0,0,0,0.00,0.00,0.00,0.00
2014-05-11 18:30:00,2,26690,0,0.00,2,2,0,2,14167,42869,9601,26225,0,0,0,0,0.00,0.00,0.00,0.00
2014-05-11 18:40:00,2,33687,0,0.00,2,2,0,2,20672,47955,8212,31296,0,0,0,0,0.00,0.00,0.00,0.00
2014-05-11 18:50:00,2,20789,0,0.00,2,2,0,2,15096,31074,4490,20264,0,0,0,0,0.00,0.00,0.00,0.00
2014-05-11 19:00:00,2,22268,0,0.00,2,2,0,2,13616,39510,7667,20078,0,0,0,0,0.00,0.00,0.00,0.00
2014-05-11 19:10:00,2,22522,0,0.00,2,2,0,2,10954,36967,8588,19734,0,0,0,0,0.00,0.00,0.00,0.00
2014-05-11 19:20:00,2,18937,0,0.00,2,2,0,2,7533,24545,5144,20514,0,0,0,0,0.00,0.00,0.00,0.00
2014-05-11 19:30:00,2,10990,0,0.00,2,2,0,2,7534,20322,3707,9688,0,0,0,0,0.00,0.00,0.00,0.00
2014-05-11 19:40:00,2,10673,0,0.00,2,2,0,2,6559,15155,2682,10480,0,0,0,0,0.00,0.00,0.00,0.00
2014-05-11 19:50:00,2,26081,0,0.00,2,2,0,2,12069,37427,8315,29152,0,0,0,0,0.00,0.00,0.00,0.00
2014-05-11 20:00:00,2,26296,0,0.00,2,2,0,2,15093,36737,8319,28102,0,0,0,0,0.00,0.00,0.00,0.00
2014-05-11 20:10:00,2,23256,0,0.00,2,2,0,2,12746,46205,10388,20400,0,0,0,0,0.00,0.00,0.00,0.00
2014-05-11 20:20:00,2,28223,0,0.00,2,2,0,2,17679,41432,6982,28506,0,0,0,0,0.00,0.00,0.00,0.00
2014-05-11 20:30:00,2,23344,0,0.00,2,2,0,2,11810,40666,8231,23624,0,0,0,0,0.00,0.00,0.00,0.00
2014-05-11 20:40:00,2,25968,0,0.00,2,2,0,2,18185,33369,4425,25874,0,0,0,0,0.00,0.00,0.00,0.00
2014-05-11 20:50:00,2,26806,0,0.00,2,2,0,2,16047,40420,8503,27352,0,0,0,0,0.00,0.00,0.00,0.00
2014-05-11 21:00:00,2,25508,0,0.00,2,2,0,2,15597,43812,8091,24112,0,0,0,0,0.00,0.00,0.00,0.00
2014-05-11 21:10:00,2,18884,0,0.00,2,2,0,2,8143,37745,10414,14924,0,0,0,0,0.00,0.00,0.00,0.00
2014-05-11 21:20:00,2,26983,0,0.00,2,2,0,2,11977,34113,7042,30038,0,0,0,0,0.00,0.00,0.00,0.00
2014-05-11 21:30:00,2,25300,0,0.00,2,2,0,2,15476,44087,9096,22188,0,0,0,0,0.00,0.00,0.00,0.00
2014-05-11 21:40:00,2,36132,0,0.00,2,2,0,2,29387,48290,6875,32032,0,0,0,0,0.00,0.00,0.00,0.00
2014-05-11 21:50:00,2,41120,0,0.00,2,2,0,2,29299,50000,5835,41017,0,0,0,0,0.00,0.00,0.00,0.00
2014-05-11 22:00:00,2,42456,0,0.00,2,2,0,2,25072,50000,8464,46320,0,0,0,0,0.00,0.00,0.00,0.00
2014-05-11 22:10:00,2,34038,0,0.00,2,2,0,2,24085,45196,6991,32297,0,0,0,0,0.00,0.00,0.00,0.00
2014-05-11 22:20:00,2,27100,0,0.00,2,2,0,2,18962,38581,6346,24870,0,0,0,0,0.00,0.00,0.00,0.00
2014-05-11 22:30:00,2,30720,0,0.00,2,2,0,2,16831,44674,9272,30884,0,0,0,0,0.00,0.00,0.00,0.00
2014-05-11 22:40:00,2,43519,0,0.00,2,2,0,2,35893,50000,4595,44062,0,0,0,0,0.00,0.00,0.00,0.00
2014-05-11 22:50:00,2,39967,0,0.00,2,2,0,2,31627,49895,5253,38628,0,0,0,0,0.00,0.00,0.00,0.00
2014-05-11 23:00:00,2,14850,0,0.00,2,2,0,2,7399,24156,6859,12362,0,0,0,0,0.00,0.00,0.00,0.00
2014-05-11 23:10:00,2,4071,40,0.03,2,2,0,2,2661,6742,1178,3722,0,77,35,40,0.00,0.15,0.05,0.00
2014-05-11 23:20:00,2,3514,77,0.11,2,2,0,2,2324,4615,779,3710,77,77,0,77,0.05,0.20,0.04,0.10
2014-05-11 23:30:00,2,2916,77,0.09,2,2,0,2,1142,4199,785,3004,77,77,0,77,0.05,0.25,0.06,0.05
2014-05-11 23:40:00,2,1732,76,0.28,2,2,0,2,1297,2725,445,1536,71,77,2,77,0.10,0.70,0.18,0.17
2014-05-11 23:50:00,2,1744,48,0.16,2,2,0,2,1102,2185,368,1856,10,77,31,71,0.00,0.75,0.26,0.03
